Regional Weather Roundup
Issued by NWS

Home | Current Version | Previous Version | Graphics & Text | Print | Product List | Glossary On
Versions: 1 2 3 4 5 6 7 8 9 10 11 12 13 14 15 16 17 18 19 20 21 22 23 24 25 26 27 28 29 30 31 32 33 34 35 36 37 38 39 40 41 42 43 44 45 46 47 48 49 50
000
ASUS43 KBIS 201410
RWRND

NORTH DAKOTA REGIONAL WEATHER ROUNDUP
NATIONAL WEATHER SERVICE BISMARCK ND
800 AM CST TUE FEB 20 2018

NOTE: "FAIR" INDICATES FEW OR NO CLOUDS BELOW 12,000 FEET WITH NO
SIGNIFICANT WEATHER AND/OR OBSTRUCTIONS TO VISIBILITY.


NDZ001>003-009>011-017-201500-
NORTHWEST NORTH DAKOTA

CITY           SKY/WX    TMP DP  RH WIND       PRES   REMARKS
WILLISTON      FLURRIES  -1  -6  79 W12       30.11R WCI -18
MINOT          MOCLDY     1  -4  79 SW7       30.10R HAZE    WCI -12
MINOT AFB      PTCLDY    -2  -7  81 W7        30.09S WCI -16
$$

NDZ018>021-031>035-040>046-201500-
SOUTHWEST NORTH DAKOTA

CITY           SKY/WX    TMP DP  RH WIND       PRES   REMARKS
BISMARCK       FLURRIES   5   0  79 NW7       30.13S WCI  -7
DICKINSON      CLEAR     -9 -13  83 W10       30.05R FOG     WCI -27
GARRISON         N/A     -3  -7  82 W8        30.10R WCI -18
HETTINGER ARPT CLOUDY    -6 -11  79 NW9       30.08R WCI -23
$$

NDZ004>008-012>016-024-026-027-054-201500-
NORTHEAST NORTH DAKOTA

CITY           SKY/WX    TMP DP  RH WIND       PRES   REMARKS
GRAND FORKS    LGT SNOW   5   1  83 N16       30.11S FOG     WCI -14
GRND FRKS AFB  LGT SNOW   4  -1  79 N13       30.10F FOG     WCI -13
DEVILS LAKE    LGT SNOW   3  -1  83 NW9       30.09R FOG     WCI -12
$$

NDZ022-023-025-028>030-036>039-047>053-201500-
SOUTHEAST NORTH DAKOTA

CITY           SKY/WX    TMP DP  RH WIND       PRES   REMARKS
FARGO          LGT SNOW   5   2  87 N23       30.07R VSB 3/4 WCI -17
JAMESTOWN      LGT SNOW   3   0  87 NW15      30.08R FOG     WCI -16
$$





USA.gov is the U.S. government's official web portal to all federal, state and local government web resources and services.